User: anonymous   Login
Location: Sunrise Point
(46.9200°N, 121.5900°W)
Time: 17:17:10
(UTC-07:00)
Language:

Cosmos 2058 - Orbit

View from above orbital plane
View from above orbital plane
View from above satellite
View from above satellite

Ground track
Ground track

The orbit data is extracted from the following two-line orbital elements,

1 20465U 90010A   16147.36434556  .00000526  00000-0  43085-4 0  9999
2 20465  82.4908 259.6739 0016496 152.6113 207.5983 14.97192907427451
Epoch (UTC): 26 May 2016 08:44:39
Eccentricity: 0.0016496
inclination: 82.4908°
perigee height: 564 km
apogee height: 587 km
right ascension of ascending node: 259.6739°
argument of perigee: 152.6113°
revolutions per day: 14.97192907
mean anomaly at epoch: 207.5983°
orbit number at epoch: 42745

The dashed part of the orbit path shows where the satellite is in the earth's shadow,  

DLR